[[{"header":{"parameterUnit":"m.s-1","parameterCategory":1,"la1":30.2991,"la2":30.254,"lo1":-89.0895,"lo2":-89.0444,"dy":0.0017,"dx":0.0017,"nx":28,"ny":28,"refTime":"2026-01-02T09:00:00:Z","depth":0,"parameterNumber":2,"parameterNumberName":"U-component_of_WINDS"},"data":[0,0,0,0,0,0,0,0,0,0,0,0,0,0,0,0,0,0,0,0,0,0,0,0,0,0,0,0,0,0,0,0,0,0,0,0,0,0,0,0,0,0,0,0,0,0,0,0,0,0,0,0,0,0,0,0,0,0,1.076,1.076,0,1.0724,1.0724,1.0724,1.0666,1.0665,1.0663,1.0662,1.0628,1.0628,1.0628,0,0,0,0,0,0,0,0,0,0,0,0,0,1.078,1.078,1.076,1.076,1.0759,1.0725,1.0724,1.0724,1.0666,1.0664,1.0663,1.0662,1.0628,1.0628,1.0628,0,0,0,0,0,0,0,0,0,0,0,0,0,1.0761,1.078,1.076,1.0726,1.0723,1.0725,1.0724,1.0723,1.0666,1.0664,1.0663,1.0661,1.0628,1.0628,1.0628,1.0661,0,0,1.0629,1.0629,0,0,0,0,0,0,0,0,1.0762,1.076,1.0732,1.0729,1.0725,1.0698,1.0718,1.0703,1.0666,1.0688,1.0662,1.0661,1.0653,1.0651,1.0648,1.066,1.0658,1.0629,1.0629,1.0629,1.0629,0,0,0,0,0,0,0,1.0763,1.0761,1.0746,1.0731,1.0727,1.0713,1.0709,1.0715,1.068,1.0686,1.0681,1.0678,1.0651,1.0648,1.0646,1.0658,1.0629,1.0629,1.0629,1.0629,1.0695,1.0696,0,0,0,0,0,0,1.0769,1.0763,1.0747,1.0745,1.074,1.0714,1.0709,1.0708,1.0679,1.0674,1.0679,1.0675,1.0648,1.0646,1.0645,1.0682,1.0629,1.0629,1.0629,1.0693,1.0695,1.0697,0,0,0,0,0,0,1.077,1.0769,1.0749,1.0753,1.0749,1.0716,1.0715,1.0708,1.0705,1.0675,1.0668,1.0683,1.0647,1.0645,1.0657,1.068,1.0629,1.0629,1.0691,1.0694,1.0696,1.0755,0,0,0,0,0,0,1.0771,1.0769,1.0781,1.0753,1.0749,1.0761,1.0716,1.0709,1.0705,1.07,1.0676,1.0671,1.0645,1.0658,1.0658,1.0679,1.0629,1.0689,1.0692,1.0695,1.0751,1.076,1.0767,0,0,0,0,0,1.0772,1.08,1.0782,1.078,1.0763,1.0763,1.076,1.073,1.0707,1.0719,1.0699,1.0671,1.0677,1.0659,1.0659,1.0681,1.0687,1.0691,1.0695,1.0748,1.0758,1.0767,0,0,0,0,0,0,1.0831,1.0795,1.0775,1.0795,1.0782,1.0753,1.0767,1.0742,1.0736,1.0731,1.0695,1.069,1.0707,1.0695,1.0676,1.0711,1.0678,1.0682,1.0718,1.0728,1.0735,1.0738,1.0629,0,0,0,0,0,1.0847,1.0849,1.0817,1.0838,1.0832,1.0801,1.08,1.0777,1.0763,1.0758,1.0739,1.0727,1.0726,1.0726,1.0723,1.0749,1.0743,1.0764,1.0771,1.0778,1.0782,1.0795,1.0804,1.0709,1.0709,1.0709,0,0,1.0879,1.0859,1.0863,1.0849,1.0837,1.0841,1.0797,1.0803,1.0805,1.0759,1.0769,1.0755,1.0739,1.0759,1.0766,1.0749,1.0807,1.0783,1.0788,1.0789,1.08,1.0809,1.0817,1.0712,1.0711,1.0711,0,0,1.0939,1.0924,1.0939,1.0928,1.0909,1.0888,1.0892,1.0866,1.0855,1.0864,1.083,1.0832,1.0831,1.0821,1.0816,1.0872,1.0847,1.0872,1.0913,1.0926,1.0934,1.094,1.0961,1.0968,1.0876,1.0877,1.0877,0,1.0981,1.0984,1.095,1.0958,1.0953,1.0911,1.0926,1.0917,1.0899,1.0897,1.0878,1.0875,1.0861,1.0878,1.0892,1.0889,1.0892,1.0875,1.0935,1.0941,1.0947,1.0966,1.0974,1.088,1.088,1.0879,1.0879,0,1.1037,1.104,1.1055,1.1038,1.1035,1.1046,1.1015,1.1016,1.0994,1.0975,1.0986,1.0968,1.0961,1.0963,1.0942,1.0976,1.0966,1.0942,1.0908,1.096,1.0977,1.0984,1.0885,1.0883,1.0882,1.0882,0,0,1.1134,1.1098,1.1104,1.1096,1.1072,1.1074,1.1084,1.1076,1.1078,1.1067,1.1075,1.1075,1.1052,1.1046,1.1023,1.1035,1.1081,1.1008,1.1007,1.1023,1.1118,1.1138,1.1147,1.1063,1.1064,1.1065,1.112,0,1.119,1.1204,1.1174,1.1196,1.1198,1.1158,1.1166,1.1153,1.1136,1.1136,1.1117,1.1117,1.1087,1.1083,1.1092,1.1073,1.1099,1.1069,1.1071,1.1071,1.1077,1.1155,1.1176,1.1228,1.1126,1.1128,1.1128,0,1.1256,1.1248,1.127,1.1245,1.1245,1.1253,1.1244,1.1244,1.1229,1.1215,1.1209,1.1182,1.119,1.1157,1.1169,1.1149,1.1148,1.1139,1.114,1.1139,1.1103,1.1158,1.1244,1.1252,1.1139,1.1138,1.1137,0,1.1325,1.132,1.1332,1.1326,1.1297,1.1304,1.1292,1.1275,1.1272,1.1264,1.1262,1.1256,1.1253,1.1248,1.1221,1.1199,1.1236,1.1201,1.1226,1.1227,1.1236,1.1236,1.1324,1.1235,1.1235,1.1234,1.1234,0,1.1391,1.1406,1.1363,1.137,1.1386,1.1352,1.1369,1.1353,1.1338,1.1342,1.1307,1.1312,1.1275,1.1276,1.1255,1.1268,1.1267,1.1257,1.1251,1.126,1.1262,1.1259,1.1255,1.1236,1.1236,1.1236,1.1235,0,1.1471,1.1442,1.1453,1.1424,1.1418,1.1431,1.1407,1.1413,1.1393,1.1399,1.1399,1.1368,1.1368,1.1339,1.1333,1.1319,1.1342,1.1329,1.1347,1.1343,1.137,1.1368,1.146,1.1471,1.1374,1.1375,1.1376,0,1.1514,1.1525,1.1497,1.1497,1.1487,1.1488,1.1485,1.1451,1.145,1.1433,1.1441,1.1438,1.1434,1.1435,1.1413,1.1408,1.1395,1.1428,1.1394,1.1403,1.1396,1.1396,1.1397,1.1435,1.1436,1.1437,1.1438,0,1.1595,1.158,1.1577,1.1569,1.1566,1.1558,1.1548,1.1551,1.1514,1.1514,1.1513,1.1509,1.1503,1.15,1.1491,1.148,1.1454,1.1449,1.1454,1.1464,1.1474,1.147,1.1367,1.1447,1.1446,1.1445,1.1445,1.1445,1.1658,1.1666,1.1648,1.1645,1.1634,1.1626,1.163,1.1611,1.1609,1.16,1.1581,1.1583,1.1567,1.1553,1.1544,1.1545,1.1529,1.1537,1.1539,1.1542,1.1547,1.1474,1.1543,1.1543,1.1543,1.1543,1.1542,0,1.1737,1.1724,1.1722,1.1708,1.1707,1.1681,1.1669,1.1669,1.1671,1.1658,1.1655,1.1654,1.1651,1.1628,1.1623,1.1629,1.1616,1.1629,1.1628,1.1626,1.1562,1.1558,1.1639,1.1639,1.1639,1.1639,1.1638,1.1638,1.1779,1.179,1.1773,1.1779,1.1765,1.1767,1.1762,1.1754,1.1744,1.1744,1.1741,1.1726,1.171,1.1703,1.17,1.1693,1.1693,1.171,1.1699,1.164,1.163,1.1622,1.1618,1.171,1.171,1.1763,1.1763,1.1764]},{"header":{"parameterUnit":"m.s-1","parameterCategory":1,"la1":30.2991,"la2":30.254,"lo1":-89.0895,"lo2":-89.0444,"dy":0.0017,"dx":0.0017,"nx":28,"ny":28,"refTime":"2026-01-02T09:00:00:Z","depth":0,"parameterNumber":3,"parameterNumberName":"V-component_of_WINDS"},"data":[0,0,0,0,0,0,0,0,0,0,0,0,0,0,0,0,0,0,0,0,0,0,0,0,0,0,0,0,0,0,0,0,0,0,0,0,0,0,0,0,0,0,0,0,0,0,0,0,0,0,0,0,0,0,0,0,0,0,7.3877,7.3878,0,7.3983,7.3984,7.3985,7.3965,7.3963,7.3961,7.3959,7.4063,7.4067,7.4071,0,0,0,0,0,0,0,0,0,0,0,0,0,7.3652,7.3656,7.3877,7.3878,7.3879,7.3982,7.3984,7.3985,7.3965,7.3963,7.396,7.3958,7.4061,7.4066,7.4072,0,0,0,0,0,0,0,0,0,0,0,0,0,7.3753,7.3657,7.3876,7.3882,7.3883,7.3982,7.3984,7.3986,7.3965,7.3962,7.396,7.3957,7.4059,7.4066,7.4073,7.4172,0,0,7.4093,7.4096,0,0,0,0,0,0,0,0,7.3747,7.3761,7.3879,7.3881,7.3883,7.3958,7.3943,7.4048,7.3966,7.3934,7.3959,7.3956,7.403,7.4039,7.4065,7.4176,7.4181,7.4094,7.4098,7.4101,7.4103,0,0,0,0,0,0,0,7.374,7.3756,7.3918,7.3881,7.3884,7.3877,7.3888,7.3962,7.3996,7.3937,7.3935,7.3948,7.403,7.4058,7.4067,7.4182,7.4094,7.41,7.4104,7.4107,7.4381,7.4385,0,0,0,0,0,0,7.3732,7.3751,7.3915,7.3922,7.3807,7.3884,7.3896,7.3936,7.3995,7.4002,7.3951,7.3947,7.4048,7.4059,7.407,7.4191,7.4101,7.4107,7.4111,7.4378,7.4382,7.4386,0,0,0,0,0,0,7.3727,7.3747,7.3911,7.3836,7.3856,7.389,7.3936,7.394,7.3968,7.4006,7.4012,7.3974,7.4046,7.4061,7.4147,7.4194,7.411,7.4116,7.4374,7.4379,7.4384,7.4433,0,0,0,0,0,0,7.3721,7.3745,7.3784,7.3837,7.386,7.3987,7.3939,7.3944,7.3981,7.3977,7.4029,7.4035,7.4045,7.4137,7.4154,7.4202,7.4122,7.437,7.4377,7.4382,7.4427,7.4439,7.4449,0,0,0,0,0,7.3713,7.3792,7.3786,7.3806,7.391,7.399,7.4003,7.4014,7.3985,7.4023,7.4048,7.4033,7.4186,7.4146,7.4165,7.4216,7.4367,7.4375,7.4382,7.4422,7.4437,7.4449,0,0,0,0,0,0,7.3742,7.3799,7.3793,7.3893,7.3937,7.3986,7.4036,7.4029,7.4081,7.4075,7.4085,7.4097,7.4185,7.4209,7.4163,7.4315,7.4272,7.4284,7.4297,7.4311,7.4321,7.4314,7.4127,0,0,0,0,0,7.3761,7.3822,7.3868,7.3951,7.3974,7.4001,7.4036,7.4042,7.4087,7.4105,7.4136,7.4179,7.4237,7.4275,7.433,7.443,7.4442,7.4475,7.4485,7.4494,7.4504,7.4559,7.4575,7.4409,7.4409,7.4409,0,0,7.3799,7.3837,7.3875,7.3958,7.3993,7.4056,7.4017,7.4084,7.4131,7.4115,7.4199,7.4223,7.4272,7.4366,7.4409,7.4388,7.4552,7.4503,7.451,7.4515,7.4569,7.4584,7.4598,7.4414,7.4414,7.4413,0,0,7.39,7.3936,7.401,7.4046,7.41,7.4118,7.4135,7.4186,7.4203,7.4288,7.4277,7.4331,7.4431,7.4467,7.4498,7.4614,7.4603,7.4631,7.4688,7.4742,7.4755,7.4767,7.4809,7.4824,7.4641,7.4641,7.4641,0,7.394,7.4036,7.4048,7.4117,7.4154,7.4144,7.4219,7.4252,7.4321,7.4346,7.4323,7.4448,7.448,7.4583,7.4612,7.4637,7.4657,7.4626,7.4752,7.4764,7.4775,7.4816,7.4831,7.4644,7.4644,7.4644,7.4643,0,7.4082,7.4149,7.4201,7.4271,7.4313,7.4384,7.4406,7.4448,7.4449,7.4469,7.4556,7.4594,7.4658,7.4682,7.4683,7.4785,7.4771,7.475,7.4707,7.4794,7.4832,7.4848,7.4649,7.4648,7.4647,7.4646,0,0,7.4205,7.4281,7.4301,7.4332,7.4392,7.4442,7.4513,7.4577,7.4613,7.466,7.4719,7.4804,7.4786,7.4821,7.4826,7.4873,7.4964,7.4846,7.4848,7.4868,7.508,7.5096,7.5114,7.4957,7.496,7.4962,7.5076,0,7.4313,7.444,7.4453,7.4566,7.4628,7.462,7.4681,7.4724,7.4744,7.4798,7.482,7.4881,7.4851,7.4872,7.4919,7.4943,7.5007,7.4935,7.5012,7.5014,7.5001,7.5134,7.5151,7.5257,7.5091,7.5094,7.5095,0,7.4456,7.451,7.463,7.4682,7.4708,7.4764,7.4824,7.4876,7.4924,7.4935,7.4976,7.4975,7.5046,7.5001,7.51,7.5051,7.5083,7.51,7.5104,7.5112,7.5061,7.5146,7.5291,7.5307,7.5119,7.5117,7.5115,0,7.4535,7.4637,7.4723,7.475,7.4812,7.4852,7.4879,7.4924,7.4962,7.5014,7.5039,7.5098,7.513,7.5175,7.519,7.5155,7.5289,7.5244,7.53,7.53,7.5329,7.5327,7.5482,7.5348,7.5348,7.5348,7.5348,0,7.4654,7.4728,7.4759,7.4812,7.4894,7.4908,7.4989,7.5014,7.5054,7.5111,7.5106,7.5159,7.5175,7.5231,7.5242,7.5323,7.5337,7.5348,7.535,7.5349,7.5348,7.5371,7.5364,7.5352,7.5351,7.535,7.535,0,7.4756,7.478,7.4873,7.4925,7.494,7.4999,7.5043,7.5093,7.5113,7.5185,7.5202,7.5233,7.5298,7.5317,7.5394,7.5402,7.5497,7.5492,7.5482,7.5483,7.5538,7.5533,7.5713,7.5738,7.5587,7.5589,7.559,0,7.4831,7.4888,7.4948,7.4986,7.5016,7.5078,7.5117,7.5133,7.5174,7.5233,7.5276,7.5341,7.5394,7.5498,7.5526,7.5586,7.5583,7.5642,7.5592,7.5589,7.5585,7.5582,7.5588,7.5652,7.5653,7.5654,7.5655,0,7.4962,7.4972,7.503,7.5093,7.5141,7.519,7.5238,7.5269,7.5291,7.5337,7.5405,7.5446,7.5527,7.5591,7.5652,7.5678,7.5671,7.5671,7.5687,7.5687,7.5679,7.5685,7.5509,7.5667,7.5666,7.5665,7.5664,7.5664,7.5054,7.5105,7.5155,7.522,7.5258,7.5303,7.5353,7.538,7.5438,7.5506,7.5511,7.5584,7.5631,7.5712,7.5742,7.5799,7.5781,7.5804,7.5811,7.5816,7.5822,7.567,7.5809,7.5809,7.5809,7.5809,7.5808,0,7.5186,7.5218,7.5278,7.5346,7.5397,7.5387,7.5439,7.5483,7.5548,7.5593,7.5645,7.5723,7.5786,7.582,7.5882,7.5921,7.5919,7.5937,7.5935,7.5941,7.5833,7.5813,7.5938,7.5938,7.5938,7.5938,7.5938,7.5938,7.526,7.5346,7.5362,7.5466,7.5498,7.5571,7.5602,7.5643,7.5679,7.5768,7.5821,7.5843,7.5883,7.5949,7.6006,7.6014,7.6037,7.6057,7.6063,7.5962,7.5949,7.5936,7.5918,7.6062,7.6062,7.6167,7.6168,7.6169]}]]